Regional Weather Roundup
Issued by NWS

Home | Current Version | Previous Version | Graphics & Text | Print | Product List | Glossary On
Versions: 1 2 3 4 5 6 7 8 9 10 11 12 13 14 15 16 17 18 19 20 21 22 23 24 25 26 27 28 29 30 31 32 33 34 35 36 37 38 39 40 41 42 43 44 45 46 47 48 49 50
000
ASUS43 KIND 292259
RWRIN

WEATHER ROUNDUP FOR INDIANA
NATIONAL WEATHER SERVICE INDIANAPOLIS IN
700 PM EDT FRI MAY 29 2015

NOTE: "FAIR" INDICATES FEW OR NO CLOUDS BELOW 12,000 FEET WITH NO
SIGNIFICANT WEATHER AND/OR OBSTRUCTIONS TO VISIBILITY.

* - STATION DOES NOT REPORT WEATHER SUCH AS PRECIPITATION OR FOG.

+ - STATION NOT QUALITY CONTROLLED BY THE NATIONAL WEATHER SERVICE.
    USE DATA WITH CAUTION...ESPECIALLY DEWPOINT AND RELATIVE
    HUMIDITY OBSERVATIONS.

INZ001>003-010>013-019-020-300000-
NORTHWEST INDIANA

CITY           SKY/WX    TMP DP  RH WIND       PRES   REMARKS
GARY /AIRPORT/ PTSUNNY   84  61  45 S9G21     29.90F
RENSSELAER +   MOSUNNY   84  59  42 S16       29.94S

$$

LMZ046-743>745-300000-
SOUTHERN LAKE MICHIGAN

STATION/POSITION TIME  TEMP    WIND        PRES    WAVE
                       AIR SEA DIR/SP/G            HT
                 (UTC) (F)     (DEG/KT/KT) (MB)    (FT)
BURNS HARBOR     2200   81     200/ 15/ 26 1012.9F
MICHIGAN CITY    2200   82     180/ 12/ 17   N/A
5NW MICH CITY    2200   73 57  210/ 10/ 14   N/A     1

$$

INZ004-005-014>016-021>024-300000-
NORTH CENTRAL INDIANA

CITY           SKY/WX    TMP DP  RH WIND       PRES   REMARKS
GOSHEN         MOSUNNY   82  64  54 S17       29.96F
SOUTH BEND     MOSUNNY   83  61  47 S15       29.94F

$$

INZ006>009-017-018-025>027-300000-
NORTHEAST INDIANA

CITY           SKY/WX    TMP DP  RH WIND       PRES   REMARKS
ANGOLA *+      SUNNY     84  79  84 SW16      29.98F HX  96
FORT WAYNE     PTSUNNY   81  65  58 S16       29.99F

$$

INZ028-029-035-036-043>045-051>053-300000-
WEST CENTRAL INDIANA

CITY           SKY/WX    TMP DP  RH WIND       PRES   REMARKS
CRAWFORDSVL +  MOSUNNY   79  57  46 S14       29.99S
GREENCASTLE +  MOSUNNY   79  61  53 S9        30.01F
LAFAYETTE      MOSUNNY   81  63  54 SW9       29.96F
TERRE HAUTE    MOSUNNY   83  64  52 S16       29.98F

$$

INZ030>032-037>040-046>048-054>057-064-065-300000-
CENTRAL INDIANA

CITY           SKY/WX    TMP DP  RH WIND       PRES   REMARKS
COLUMBUS       MOSUNNY   81  63  54 S13       30.03F
INDIANAPOLIS   MOSUNNY   81  63  54 S16       30.00F
-EAGLE CREEK   MOSUNNY   81  64  56 S10G17    30.00F
KOKOMO *+      SUNNY     84  64  51 SW15G23   29.98S
MT COMFORT *+  SUNNY     82  50  32 SW13      30.03S
SHELBYVILLE    MOSUNNY   85  63  47 S15       30.01F

$$

INZ033-034-041-042-049-050-058-059-300000-
EAST CENTRAL INDIANA

CITY           SKY/WX    TMP DP  RH WIND       PRES   REMARKS
MUNCIE         MOSUNNY   83  63  50 S13G24    30.01F

$$

INZ060-061-067>069-081>083-085>088-300000-
SOUTHWEST INDIANA

CITY           SKY/WX    TMP DP  RH WIND       PRES   REMARKS
EVANSVILLE     MOSUNNY   81  66  60 S8        30.01F
HUNTINGBURG *+ MOSUNNY   81  68  65 S8        30.03F

$$

INZ062-063-066-070>080-084-089>092-300000-
SOUTH CENTRAL AND SOUTHEAST INDIANA

CITY           SKY/WX    TMP DP  RH WIND       PRES   REMARKS
BLOOMINGTON    MOSUNNY   81  65  58 S10       30.03F
MADISON *+     MOSUNNY   82  59  44 SW10      30.07F
SEYMOUR +      SUNNY     84  64  51 S10       30.03F

$$



USA.gov is the U.S. government's official web portal to all federal, state and local government web resources and services.